• In Romania
  • List of Countries
  • For 7 days
  • Water Temperature
  • Satellite Maps
  • Weather Map
  • Weather Widgets
  • user-avatar
    Login

    Hourly Weather Mendoza

    Today, 26 July, Wednesday

    Time Temperature Precipitation Wind Pressure Humidity
    00:00 +10°C° 0 mm 2 mps 699 mmHg 45%
    01:00 +10°C° 0 mm 2 mps 699 mmHg 46%
    02:00 +9°C° 0 mm 2 mps 699 mmHg 49%
    03:00 +9°C° 0 mm 2 mps 699 mmHg 52%
    04:00 +9°C° 0 mm 3 mps 699 mmHg 54%
    05:00 +9°C° 0 mm 2 mps 699 mmHg 55%
    06:00 +9°C° 0 mm 2 mps 699 mmHg 55%
    07:00 +9°C° 0 mm 3 mps 700 mmHg 53%
    08:00 +11°C° 0 mm 3 mps 700 mmHg 50%
    09:00 +14°C° 0 mm 2 mps 700 mmHg 47%
    10:00 +16°C° 0 mm 2 mps 700 mmHg 44%
    11:00 +17°C° 0 mm 2 mps 700 mmHg 43%
    12:00 +18°C° 0 mm 2 mps 699 mmHg 41%
    13:00 +19°C° 0 mm 2 mps 699 mmHg 39%
    14:00 +19°C° 0 mm 2 mps 699 mmHg 39%
    15:00 +18°C° 0 mm 2 mps 698 mmHg 40%
    16:00 +18°C° 0 mm 2 mps 698 mmHg 41%
    17:00 +17°C° 0 mm 2 mps 698 mmHg 44%
    18:00 +16°C° 0 mm 2 mps 698 mmHg 47%
    19:00 +14°C° 0 mm 2 mps 698 mmHg 50%
    20:00 +14°C° 0 mm 2 mps 698 mmHg 50%
    21:00 +14°C° 0 mm 2 mps 698 mmHg 49%
    22:00 +13°C° 0 mm 2 mps 698 mmHg 49%
    23:00 +13°C° 0 mm 2 mps 697 mmHg 50%

    Tomorrow, 27 July, Thursday

    Time Temperature Precipitation Wind Pressure Humidity
    00:00 +13°C° 0 mm 2 mps 697 mmHg 50%
    01:00 +13°C° 0 mm 2 mps 697 mmHg 51%
    02:00 +13°C° 0 mm 2 mps 696 mmHg 52%
    03:00 +12°C° 0 mm 2 mps 696 mmHg 54%
    04:00 +12°C° 0 mm 2 mps 696 mmHg 55%
    05:00 +12°C° 0 mm 2 mps 696 mmHg 56%
    06:00 +12°C° 0 mm 2 mps 696 mmHg 56%
    07:00 +12°C° 0 mm 2 mps 696 mmHg 57%
    08:00 +14°C° 0 mm 2 mps 696 mmHg 53%
    09:00 +16°C° 0 mm 2 mps 696 mmHg 49%
    10:00 +18°C° 0 mm 2 mps 696 mmHg 45%
    11:00 +20°C° 0 mm 2 mps 696 mmHg 42%
    12:00 +21°C° 0 mm 3 mps 695 mmHg 39%
    13:00 +22°C° 0 mm 3 mps 695 mmHg 36%
    14:00 +22°C° 0 mm 3 mps 695 mmHg 37%
    15:00 +23°C° 0 mm 2 mps 695 mmHg 37%
    16:00 +21°C° 0 mm 2 mps 695 mmHg 37%
    17:00 +20°C° 0 mm 2 mps 695 mmHg 39%
    18:00 +19°C° 0 mm 3 mps 695 mmHg 40%
    19:00 +17°C° 0 mm 3 mps 696 mmHg 41%
    20:00 +17°C° 0 mm 3 mps 696 mmHg 38%
    21:00 +17°C° 0 mm 3 mps 696 mmHg 35%
    22:00 +17°C° 0 mm 3 mps 696 mmHg 33%
    23:00 +15°C° 0 mm 4 mps 695 mmHg 34%

    Day after tomorrow, 28 July, Friday

    Time Temperature Precipitation Wind Pressure Humidity
    00:00 +15°C° 0 mm 4 mps 695 mmHg 35%
    01:00 +15°C° 0 mm 4 mps 695 mmHg 36%
    02:00 +14°C° 0 mm 4 mps 695 mmHg 39%
    03:00 +14°C° 0 mm 4 mps 694 mmHg 43%
    04:00 +13°C° 0 mm 4 mps 694 mmHg 46%
    05:00 +13°C° 0 mm 4 mps 695 mmHg 47%
    06:00 +13°C° 0 mm 4 mps 695 mmHg 48%
    07:00 +13°C° 0 mm 4 mps 695 mmHg 48%
    08:00 +15°C° 0 mm 4 mps 696 mmHg 46%
    09:00 +18°C° 0 mm 4 mps 696 mmHg 44%
    10:00 +20°C° 0 mm 4 mps 696 mmHg 42%
    11:00 +21°C° 0 mm 4 mps 696 mmHg 41%
    12:00 +22°C° 0 mm 4 mps 695 mmHg 41%
    13:00 +22°C° 0 mm 4 mps 695 mmHg 40%
    14:00 +22°C° 0 mm 4 mps 695 mmHg 41%
    15:00 +21°C° 0 mm 4 mps 695 mmHg 43%
    16:00 +21°C° 0 mm 4 mps 695 mmHg 44%
    17:00 +20°C° 0 mm 3 mps 696 mmHg 49%
    18:00 +18°C° 0 mm 3 mps 696 mmHg 54%
    19:00 +17°C° 0 mm 3 mps 697 mmHg 59%
    20:00 +16°C° 0 mm 3 mps 697 mmHg 61%
    21:00 +16°C° 0 mm 3 mps 698 mmHg 63%
    22:00 +14°C° 0 mm 4 mps 698 mmHg 66%
    23:00 +14°C° 0 mm 4 mps 698 mmHg 66%

    29 July, Saturday

    Time Temperature Precipitation Wind Pressure Humidity
    00:00 +13°C° 0 mm 4 mps 698 mmHg 67%
    01:00 +13°C° 0 mm 5 mps 698 mmHg 68%
    02:00 +13°C° 0 mm 5 mps 698 mmHg 66%
    03:00 +12°C° 0 mm 5 mps 698 mmHg 65%
    04:00 +12°C° 0 mm 5 mps 698 mmHg 64%
    05:00 +12°C° 0 mm 5 mps 699 mmHg 65%
    06:00 +10°C° 0 mm 5 mps 699 mmHg 67%
    07:00 +10°C° 0 mm 5 mps 700 mmHg 68%
    08:00 +10°C° 0 mm 5 mps 700 mmHg 69%
    09:00 +10°C° 0 mm 5 mps 700 mmHg 70%
    10:00 +10°C° 0 mm 5 mps 700 mmHg 71%
    11:00 +10°C° 0 mm 5 mps 700 mmHg 69%
    12:00 +10°C° 0 mm 5 mps 699 mmHg 68%
    13:00 +10°C° 0 mm 5 mps 699 mmHg 67%
    14:00 +10°C° 0 mm 5 mps 699 mmHg 66%
    15:00 +9°C° 0 mm 5 mps 699 mmHg 66%
    16:00 +10°C° 0 mm 4 mps 699 mmHg 66%
    17:00 +8°C° 0 mm 4 mps 700 mmHg 66%
    18:00 +8°C° 0 mm 4 mps 700 mmHg 67%
    19:00 +7°C° 0 mm 4 mps 701 mmHg 68%
    20:00 +7°C° 0 mm 4 mps 701 mmHg 68%
    21:00 +7°C° 0 mm 4 mps 701 mmHg 69%
    22:00 +6°C° 0 mm 4 mps 701 mmHg 69%
    23:00 +6°C° 0 mm 4 mps 701 mmHg 70%

    30 July, Sunday

    Time Temperature Precipitation Wind Pressure Humidity
    00:00 +6°C° 0 mm 4 mps 701 mmHg 71%
    01:00 +6°C° 0 mm 4 mps 701 mmHg 71%
    02:00 +5°C° 0 mm 3 mps 700 mmHg 73%
    03:00 +5°C° 0 mm 3 mps 700 mmHg 74%
    04:00 +5°C° 0 mm 3 mps 700 mmHg 76%
    05:00 +5°C° 0 mm 3 mps 700 mmHg 75%
    06:00 +5°C° 0 mm 3 mps 701 mmHg 75%
    07:00 +5°C° 0 mm 3 mps 701 mmHg 75%
    08:00 +6°C° 0 mm 4 mps 701 mmHg 70%
    09:00 +7°C° 0 mm 4 mps 701 mmHg 65%
    10:00 +8°C° 0 mm 4 mps 701 mmHg 61%
    11:00 +9°C° 0 mm 5 mps 701 mmHg 60%
    12:00 +9°C° 0 mm 5 mps 701 mmHg 58%
    13:00 +10°C° 0 mm 5 mps 700 mmHg 57%
    14:00 +10°C° 0 mm 5 mps 701 mmHg 60%
    15:00 +9°C° 0 mm 5 mps 701 mmHg 63%
    16:00 +9°C° 0 mm 5 mps 701 mmHg 65%
    17:00 +8°C° 0 mm 4 mps 701 mmHg 68%
    18:00 +7°C° 0 mm 4 mps 702 mmHg 70%
    19:00 +7°C° 0 mm 4 mps 702 mmHg 72%
    20:00 +6°C° 0 mm 4 mps 702 mmHg 73%
    21:00 +7°C° 0 mm 3 mps 702 mmHg 73%
    22:00 +7°C° 0 mm 3 mps 702 mmHg 74%
    23:00 +5°C° 0 mm 3 mps 702 mmHg 75%

    31 July, Monday

    Time Temperature Precipitation Wind Pressure Humidity
    00:00 +5°C° 0 mm 3 mps 702 mmHg 76%
    01:00 +5°C° 0 mm 3 mps 701 mmHg 77%
    02:00 +5°C° 0 mm 2 mps 701 mmHg 78%
    03:00 +5°C° 0 mm 2 mps 700 mmHg 79%
    04:00 +5°C° 0 mm 2 mps 700 mmHg 80%
    05:00 +5°C° 0 mm 2 mps 700 mmHg 79%
    06:00 +5°C° 0 mm 2 mps 700 mmHg 79%
    07:00 +5°C° 0 mm 2 mps 700 mmHg 78%
    08:00 +6°C° 0 mm 2 mps 699 mmHg 74%
    09:00 +7°C° 0 mm 2 mps 699 mmHg 70%
    10:00 +8°C° 0 mm 2 mps 699 mmHg 65%
    11:00 +9°C° 0 mm 2 mps 698 mmHg 63%
    12:00 +10°C° 0 mm 2 mps 697 mmHg 60%
    13:00 +12°C° 0 mm 2 mps 696 mmHg 57%
    14:00 +12°C° 0 mm 2 mps 696 mmHg 57%
    15:00 +12°C° 0 mm 2 mps 696 mmHg 57%
    16:00 +12°C° 0 mm 2 mps 696 mmHg 57%
    17:00 +10°C° 0 mm 2 mps 696 mmHg 60%
    18:00 +10°C° 0 mm 2 mps 697 mmHg 62%
    19:00 +9°C° 0 mm 2 mps 697 mmHg 65%
    20:00 +9°C° 0 mm 2 mps 697 mmHg 66%
    21:00 +8°C° 0 mm 2 mps 697 mmHg 68%
    22:00 +8°C° 0 mm 2 mps 697 mmHg 70%
    23:00 +7°C° 0 mm 2 mps 697 mmHg 71%
    Show more